Starlink 32759

operational
NORAD ID: 62751 Int'l Des: 2025-014 Owner: SPXS Country: US Constellation: starlink
LEOCIRCULAR

About Starlink 32759

Description loading...

Live Position

Loading 3D Globe...

Upcoming Passes

Altitude History

Altitude vs Time

uPlot chart will show altitude changes over time

Two-Line Element Set

1 62751U 25014S 25258.18759144 .00035237 00000-0 12830-2 0 9990
2 62751 43.0037 69.2491 0001605 261.8368 98.2302 15.27602209 36374
Epoch: Sep 15, 2025 • Age: 23 hours

Current Status

Altitude 494.7 km
Velocity 7.62 km/s
Sub-Earth Point -42.40°S, 63.72°W
Launch Date Jan 21, 2025
Age 0.6 years
Type internet

Technical Details

Classification Payload
Mass 730.00 kg
Dry Mass 700.00 kg
Total Mass 730.00 kg
Length 0.30 m
Diameter 4.10 m
Span 29.00 m
Shape Box + pan
Manufacturer SPXS
Bus Type Starlink V2M
Phase Status In Orbit
Owner/State SPXS/US

Large Constellations

Loading constellations...